Wind_Speed
6 6 6 5 4 4 2 1 0 1 2 2 4 6 8 10 10 10 8 10 8 7 8 9 9 9 7 8 1 6 15 15 10 7 3 8 5 11 11 9 12 12 12 14 9
7 7 6 5 4 3 3 2 2 2 3 3 2 2 2 1 2 5 8 8 9 10 10 10 12 18 16 11 2 6 13 9 6 3 7 8 3 10 12 10 8 10 13 13 7
7 8 7 6 4 3 3 2 1 2 2 2 2 4 7 9 9 5 7 8 9 11 11 12 17 21 14 5 5 16 6 4 5 9 5 5 6 10 11 9 10 11 10 10 12
7 7 7 6 5 4 3 2 1 1 1 1 2 3 8 7 5 7 7 8 9 12 13 12 21 17 8 4 6 13 3 3 2 6 1 5 9 9 5 6 6 8 13 10 14
7 7 7 7 5 4 3 1 0 0 1 1 1 2 3 6 8 8 8 6 8 11 13 15 16 9 4 3 7 8 6 3 5 2 10 7 9 11 5 5 6 7 10 9 13
6 6 6 6 6 4 3 1 0 1 2 1 2 3 3 4 3 6 8 6 7 9 11 15 15 8 6 2 3 7 4 6 9 9 8 8 11 2 9 5 10 7 4 6 8
6 6 6 6 6 4 3 2 2 2 2 2 3 3 3 4 3 6 6 8 8 10 12 15 13 6 5 9 5 3 5 8 12 11 11 16 10 10 9 6 4 6 3 1 4
6 5 5 5 5 5 4 3 2 2 3 3 3 4 2 5 5 6 5 7 8 9 13 9 6 5 10 5 2 1 5 8 9 13 12 12 12 11 13 4 4 7 4 4 2
7 6 5 4 4 4 4 3 4 4 3 3 3 3 2 3 8 5 7 12 11 7 6 3 2 2 5 1 7 10 11 10 11 10 13 11 19 22 15 7 5 2 7 8 4
8 6 5 5 4 4 4 4 4 5 6 6 6 5 3 2 6 6 7 8 11 13 10 8 5 3 4 4 8 13 18 9 18 13 13 11 19 19 12 10 7 8 6 14 12
9 8 6 6 4 4 5 6 5 6 8 7 7 10 5 3 7 5 4 5 8 7 6 5 3 4 9 3 6 11 7 4 14 16 7 12 14 17 17 14 11 9 6 3 7
10 9 7 7 6 5 5 6 7 8 8 11 8 9 8 7 3 2 5 7 13 10 6 1 1 5 4 3 7 7 7 8 13 8 1 11 12 19 20 16 9 9 4 6 5
11 9 8 8 8 7 7 7 6 6 9 12 10 13 7 4 6 5 5 13 11 7 3 6 5 2 1 6 4 5 8 7 4 1 2 3 4 22 20 16 14 9 4 4 5
12 10 8 9 9 9 8 9 6 3 5 7 12 15 16 11 11 12 6 7 9 1 8 8 3 6 5 4 5 5 4 5 6 7 4 8 6 20 26 23 17 11 8 9 6
12 10 10 11 12 10 7 6 6 4 2 6 9 7 9 12 6 10 8 10 10 5 6 3 3 5 4 1 4 4 9 13 14 12 15 17 8 14 30 27 21 15 14 13 9
13 11 11 12 13 14 9 8 7 4 5 10 11 9 13 13 12 6 13 9 8 10 10 9 5 6 6 6 6 7 5 4 8 10 8 24 12 17 35 33 24 20 18 14 8
14 13 11 12 13 13 12 10 7 6 4 11 17 11 9 18 16 17 14 10 13 9 11 8 10 10 16 13 10 5 6 5 5 5 7 18 11 16 33 33 29 28 21 11 8
15 14 12 13 14 15 16 15 10 5 3 7 19 14 11 17 18 21 17 10 7 12 10 8 12 14 19 11 6 5 2 3 1 1 10 12 7 7 30 34 28 21 13 7 7
15 13 11 15 16 17 18 19 12 5 5 9 14 22 17 15 12 24 26 19 8 10 15 6 2 4 8 9 7 2 5 3 2 3 5 3 12 7 15 31 23 17 12 10 11
14 12 11 15 16 18 21 24 21 13 6 3 2 17 12 17 17 25 30 27 19 13 14 17 11 7 6 10 8 6 3 4 3 2 3 1 8 19 28 28 21 16 14 14 15
11 9 9 8 14 19 24 27 28 9 4 6 12 11 6 4 4 5 16 27 24 17 17 24 22 12 11 13 10 7 9 9 4 2 5 0 2 19 18 16 17 19 19 18 18
11 11 14 14 14 18 21 22 16 12 6 5 12 15 18 14 11 5 7 6 15 17 26 23 15 13 11 12 7 6 11 14 12 9 5 3 7 11 11 17 21 20 19 19 21
13 17 19 16 16 16 13 12 13 15 9 8 8 9 7 14 10 5 4 4 6 17 22 20 12 9 8 13 13 5 6 7 11 11 12 4 6 14 14 17 15 15 18 22 26
14 20 24 22 16 12 15 17 12 11 9 15 16 15 14 12 12 7 5 5 6 9 13 13 13 12 12 8 10 10 10 8 6 9 10 17 18 16 19 22 22 24 26 27 29
19 20 27 20 24 21 18 14 11 9 6 13 11 18 19 17 16 7 13 5 10 10 12 11 9 10 14 17 19 19 21 16 12 11 15 15 18 19 17 20 23 22 23 23 24
20 19 23 20 18 22 15 10 8 11 7 9 9 8 16 22 17 17 11 5 3 15 15 16 11 12 13 17 18 25 27 21 19 17 19 19 23 25 22 22 20 18 16 18 23
20 22 23 24 20 15 15 14 12 11 9 10 10 12 18 17 17 17 16 11 4 4 19 15 13 10 12 14 16 15 20 21 21 23 24 27 26 25 26 24 21 20 22 26 30
Wind_Direction
351 346 343 339 333 340 356 17 111 194 210 236 245 248 250 250 246 240 228 217 208 179 168 172 171 157 162 166 256 286 274 288 300 212 45 87 117 65 107 66 78 67 41 45 87
353 349 349 349 343 346 353 20 63 84 91 93 102 108 96 115 159 189 199 187 189 175 158 158 160 162 147 143 206 257 279 299 112 30 339 101 337 140 118 78 83 50 30 36 39
353 350 348 350 347 345 350 12 50 87 98 95 89 87 91 97 99 121 154 169 169 179 169 150 157 150 130 113 49 336 309 35 351 6 85 105 100 105 92 105 54 23 1 22 18
351 348 344 344 343 342 347 358 6 97 121 125 115 105 115 96 85 100 118 147 162 173 165 147 163 143 136 110 13 332 291 271 36 320 192 127 138 100 42 59 38 25 15 25 28
346 341 340 336 334 333 333 346 328 161 195 186 170 163 135 101 95 105 107 140 160 161 158 151 154 138 114 68 350 49 9 301 289 66 119 123 129 117 115 93 89 34 11 360 16
340 334 333 330 321 318 314 319 242 154 169 179 178 173 141 114 92 117 116 127 146 156 157 147 164 166 165 200 301 350 334 278 197 137 128 162 109 175 123 103 93 84 73 347 350
329 324 322 322 313 304 293 271 213 187 179 173 156 163 145 88 128 115 119 136 149 150 145 170 176 187 207 171 209 263 259 190 178 173 144 164 127 138 141 114 73 77 93 3 313
313 312 307 309 305 294 280 258 217 200 181 183 150 139 124 109 135 114 123 142 148 173 177 187 179 201 212 245 215 309 252 249 199 193 192 181 148 171 181 195 36 75 98 62 333
298 300 292 289 292 281 270 254 227 206 190 176 156 119 98 137 135 138 172 149 125 131 140 127 3 210 183 291 17 4 328 261 202 189 175 182 160 168 190 218 273 347 162 171 237
287 288 278 271 272 264 243 230 227 220 200 179 179 155 56 281 154 164 185 176 121 115 89 80 79 108 88 334 332 355 7 156 182 185 185 188 169 184 209 232 228 177 177 228 246
281 280 267 260 252 250 232 221 240 237 219 195 176 158 111 82 150 163 150 145 134 152 120 31 5 30 23 2 25 2 339 65 190 164 176 167 183 193 208 221 208 177 132 65 268
276 273 261 246 243 244 241 230 238 239 223 212 185 193 186 143 301 89 157 172 135 110 116 272 276 28 45 16 350 356 342 13 184 172 282 155 194 199 209 214 227 204 151 121 103
274 268 255 238 234 235 229 225 223 259 263 232 219 220 221 189 244 211 66 147 135 145 165 288 335 51 31 303 316 39 80 84 87 254 130 200 223 193 201 202 197 193 201 184 94
272 265 246 236 230 230 235 227 222 229 277 200 214 198 208 207 265 203 145 170 158 135 331 309 258 190 245 289 314 238 317 301 305 327 280 267 276 198 199 189 196 213 244 234 216
267 257 244 231 227 226 235 232 222 178 342 156 151 157 180 174 177 190 152 203 197 232 304 264 336 233 149 220 270 271 294 297 310 312 303 281 278 218 184 183 205 218 232 238 235
261 247 243 222 224 227 225 223 205 192 254 170 173 189 165 156 154 184 187 217 222 275 247 269 226 225 214 237 270 299 12 293 285 285 288 277 278 206 195 212 202 210 219 223 255
257 249 231 223 221 223 216 214 196 217 195 198 194 193 207 178 171 190 194 215 226 241 247 270 235 257 267 253 266 238 335 347 9 14 237 333 270 266 212 216 228 210 205 220 267
255 246 231 225 217 212 205 196 222 200 144 341 218 186 184 177 193 196 212 219 198 221 246 268 289 289 228 207 193 149 197 112 198 290 290 331 319 212 201 201 198 193 205 224 240
254 245 233 225 220 214 206 200 222 159 36 2 201 185 200 195 195 202 219 229 191 210 225 220 110 138 168 184 191 236 277 285 281 276 306 18 99 92 186 177 179 194 203 211 237
251 243 221 229 220 218 210 210 223 197 282 261 240 190 213 211 229 238 223 232 234 236 234 226 160 174 192 200 205 275 278 275 242 140 259 326 181 158 165 175 199 217 222 228 242
245 227 215 208 227 225 217 219 226 203 33 286 268 260 215 298 324 299 231 228 224 236 224 211 216 202 187 205 237 275 247 245 238 208 159 344 303 180 186 202 208 206 219 237 255
230 197 199 194 222 221 226 234 243 199 140 296 269 254 260 266 294 303 324 263 233 232 196 206 208 208 212 186 241 288 262 236 215 223 225 249 238 202 207 210 211 218 234 248 252
219 179 195 209 227 239 245 233 241 214 235 245 235 256 255 258 272 244 284 231 165 194 200 203 201 189 225 237 247 220 79 248 222 205 222 227 266 206 216 224 231 247 249 249 251
212 188 192 206 234 251 251 235 233 220 249 222 246 242 237 247 240 238 270 252 248 234 216 205 195 210 204 208 230 246 234 303 307 271 256 247 261 231 215 223 247 249 249 249 258
211 205 194 204 226 236 245 233 243 231 209 240 259 240 235 242 233 243 227 246 206 238 236 237 240 253 267 253 250 255 251 267 284 281 290 279 279 279 251 243 244 245 250 265 279
223 217 200 200 204 218 226 220 246 238 233 201 231 254 234 239 232 239 221 212 172 225 235 252 255 253 252 259 255 254 255 264 271 277 280 284 273 276 252 246 244 249 261 278 290
229 229 218 217 215 207 204 203 202 222 213 254 256 233 230 234 236 247 246 228 252 222 217 220 221 220 236 236 252 263 255 264 277 272 272 276 277 264 245 247 252 262 275 289 302
Height
3174 3173 3171 3170 3169 3168 3168 3167 3167 3167 3167 3168 3168 3169 3169 3170 3172 3174 3177 3179 3181 3182 3184 3186 3188 3190 3190 3191 3192 3191 3191 3189 3190 3191 3191 3188 3188 3186 3188 3186 3186 3185 3185 3185 3185
3174 3172 3171 3170 3169 3168 3167 3167 3167 3167 3167 3167 3168 3168 3168 3169 3170 3171 3174 3176 3178 3181 3183 3184 3186 3187 3188 3191 3192 3193 3191 3191 3191 3190 3188 3187 3188 3187 3188 3187 3187 3186 3185 3186 3186
3174 3172 3171 3170 3168 3168 3167 3166 3166 3166 3167 3167 3167 3167 3168 3168 3170 3170 3172 3174 3176 3179 3182 3184 3186 3188 3187 3188 3191 3191 3190 3190 3190 3188 3188 3188 3187 3187 3186 3188 3187 3188 3187 3188 3188
3173 3172 3170 3169 3168 3167 3166 3166 3166 3166 3166 3167 3167 3167 3168 3170 3172 3170 3171 3173 3175 3178 3181 3183 3186 3187 3187 3188 3189 3189 3189 3189 3189 3188 3188 3188 3189 3188 3186 3187 3189 3189 3187 3187 3189
3173 3171 3170 3168 3167 3167 3166 3166 3165 3165 3165 3166 3166 3167 3168 3170 3171 3171 3171 3173 3175 3177 3180 3183 3186 3185 3185 3185 3186 3188 3188 3188 3188 3187 3187 3188 3188 3188 3187 3187 3188 3189 3188 3188 3190
3172 3171 3169 3168 3167 3166 3166 3165 3165 3165 3165 3165 3166 3167 3169 3171 3170 3171 3171 3173 3174 3176 3179 3183 3185 3185 3183 3183 3185 3185 3185 3186 3187 3187 3188 3187 3188 3185 3188 3187 3188 3189 3190 3190 3189
3171 3170 3168 3167 3166 3166 3165 3165 3165 3165 3165 3165 3165 3166 3168 3170 3170 3170 3171 3173 3174 3176 3178 3181 3182 3182 3183 3183 3184 3184 3184 3183 3184 3185 3186 3186 3189 3185 3185 3186 3186 3187 3188 3189 3191
3170 3169 3167 3167 3166 3165 3164 3164 3164 3164 3164 3165 3165 3167 3168 3169 3169 3170 3172 3173 3174 3177 3179 3180 3179 3180 3181 3183 3183 3182 3183 3183 3182 3183 3186 3186 3187 3188 3187 3186 3183 3185 3188 3189 3188
3168 3167 3166 3166 3165 3164 3163 3163 3163 3163 3164 3164 3165 3166 3168 3169 3170 3170 3172 3173 3175 3177 3178 3178 3178 3180 3181 3182 3181 3180 3179 3179 3180 3182 3183 3184 3185 3187 3188 3190 3190 3186 3187 3189 3189
3166 3166 3165 3164 3164 3163 3162 3162 3162 3162 3162 3163 3164 3168 3168 3168 3168 3170 3171 3172 3172 3175 3177 3177 3178 3179 3180 3181 3180 3178 3177 3174 3178 3181 3181 3181 3182 3185 3186 3187 3189 3190 3190 3189 3189
3164 3163 3163 3163 3162 3162 3162 3162 3164 3164 3161 3162 3164 3164 3165 3168 3168 3169 3169 3170 3172 3174 3176 3177 3178 3179 3179 3179 3179 3178 3179 3179 3179 3180 3180 3179 3179 3181 3182 3183 3184 3186 3188 3188 3186
3161 3161 3161 3161 3160 3160 3160 3160 3160 3161 3160 3160 3162 3162 3163 3163 3167 3168 3170 3172 3173 3174 3175 3178 3177 3178 3178 3178 3180 3179 3177 3177 3178 3182 3182 3180 3179 3180 3180 3181 3181 3182 3186 3188 3187
3158 3158 3158 3159 3158 3159 3158 3158 3158 3157 3158 3158 3160 3161 3162 3163 3166 3167 3169 3171 3171 3173 3175 3175 3176 3176 3177 3179 3179 3178 3178 3180 3180 3179 3179 3179 3180 3180 3181 3181 3181 3180 3182 3185 3187
3155 3155 3156 3156 3158 3156 3156 3156 3155 3155 3156 3156 3156 3158 3160 3162 3164 3165 3167 3172 3170 3172 3173 3174 3175 3175 3177 3177 3177 3177 3177 3177 3177 3177 3177 3177 3177 3176 3176 3179 3178 3178 3179 3181 3185
3151 3151 3152 3153 3154 3155 3156 3155 3155 3156 3155 3155 3155 3157 3159 3161 3163 3164 3166 3169 3170 3171 3174 3174 3174 3174 3174 3175 3176 3177 3176 3175 3175 3174 3173 3173 3175 3170 3174 3175 3175 3176 3177 3178 3181
3147 3147 3149 3150 3151 3152 3153 3153 3155 3157 3151 3152 3153 3154 3157 3159 3162 3163 3165 3168 3169 3168 3169 3171 3173 3174 3173 3173 3174 3175 3175 3174 3173 3173 3173 3168 3172 3173 3167 3167 3171 3174 3174 3176 3177
3143 3143 3145 3146 3148 3148 3150 3152 3155 3151 3150 3151 3150 3152 3154 3157 3160 3162 3164 3165 3167 3169 3167 3168 3168 3171 3172 3173 3173 3174 3174 3174 3175 3175 3173 3167 3167 3162 3164 3166 3167 3169 3173 3174 3175
3138 3139 3141 3142 3143 3144 3147 3151 3149 3146 3148 3149 3149 3150 3151 3155 3157 3158 3161 3162 3163 3166 3166 3167 3167 3166 3165 3170 3172 3172 3174 3174 3178 3179 3171 3165 3163 3160 3162 3165 3169 3171 3173 3173 3174
3134 3135 3137 3138 3139 3141 3144 3145 3142 3144 3146 3145 3145 3148 3150 3151 3154 3156 3157 3158 3160 3162 3164 3164 3165 3164 3166 3168 3171 3172 3173 3173 3173 3173 3171 3169 3167 3163 3162 3168 3170 3170 3170 3171 3170
3129 3131 3133 3133 3134 3136 3139 3139 3138 3142 3143 3143 3145 3148 3148 3151 3153 3154 3152 3153 3155 3156 3158 3162 3164 3165 3165 3168 3170 3170 3171 3171 3171 3173 3174 3170 3168 3167 3167 3167 3169 3169 3169 3169 3169
3126 3128 3129 3129 3130 3132 3133 3134 3135 3141 3141 3143 3142 3143 3144 3146 3147 3147 3146 3150 3150 3151 3154 3156 3159 3162 3163 3164 3166 3168 3168 3169 3170 3170 3171 3174 3169 3167 3167 3167 3167 3168 3168 3168 3169
3122 3124 3125 3124 3128 3127 3129 3131 3135 3137 3137 3139 3139 3139 3140 3141 3142 3144 3144 3144 3144 3145 3149 3151 3153 3156 3160 3162 3163 3164 3164 3165 3166 3169 3167 3168 3169 3168 3168 3167 3166 3167 3167 3167 3166
3117 3120 3123 3123 3122 3124 3126 3127 3127 3130 3133 3134 3135 3136 3137 3138 3142 3142 3142 3143 3143 3143 3144 3146 3149 3153 3156 3160 3160 3160 3162 3163 3163 3162 3162 3164 3165 3165 3165 3164 3164 3163 3163 3162 3160
3114 3116 3118 3119 3121 3121 3121 3122 3125 3127 3127 3130 3132 3133 3135 3136 3137 3139 3139 3140 3141 3143 3144 3146 3146 3148 3151 3154 3156 3157 3158 3159 3159 3159 3158 3159 3161 3161 3160 3158 3158 3157 3156 3155 3155
3106 3106 3110 3113 3116 3116 3118 3120 3122 3123 3124 3126 3127 3128 3130 3131 3132 3134 3135 3136 3138 3139 3140 3142 3144 3146 3148 3151 3152 3152 3153 3154 3155 3156 3157 3157 3156 3155 3153 3153 3152 3151 3150 3150 3150
3102 3104 3107 3109 3110 3112 3116 3118 3119 3120 3121 3121 3122 3124 3123 3125 3127 3129 3131 3132 3133 3135 3135 3136 3138 3140 3143 3146 3146 3146 3147 3147 3149 3151 3150 3150 3150 3149 3147 3146 3147 3147 3147 3147 3146
3097 3098 3101 3103 3106 3110 3110 3110 3111 3113 3118 3117 3119 3118 3119 3120 3123 3126 3128 3129 3128 3130 3131 3134 3134 3137 3139 3141 3142 3142 3142 3143 3143 3144 3144 3141 3143 3138 3139 3142 3144 3144 3144 3143 3141